PDT,Max TemperatureF,Mean TemperatureF,Min TemperatureF,Max Dew PointF,MeanDew PointF,Min DewpointF,Max Humidity, Mean Humidity, Min Humidity, Max Sea Level PressureIn, Mean Sea Level PressureIn, Min Sea Level PressureIn, Max VisibilityMiles, Mean VisibilityMiles, Min VisibilityMiles, Max Wind SpeedMPH, Mean Wind SpeedMPH, Max Gust SpeedMPH,PrecipitationIn, CloudCover, Events, WindDirDegrees
2013-9-1,93,74,54,47,44,43,66,43,19,29.82,29.76,29.69,10,10,10,15,7,18,0.00,0,,81
2013-9-2,88,75,61,64,54,43,87,61,34,29.84,29.78,29.71,10,10,7,26,6,35,0.09,2,Rain-Thunderstorm,20
2013-9-3,86,74,62,66,60,54,93,67,40,29.91,29.86,29.83,10,10,9,17,6,21,0.01,1,Rain,159
2013-9-4,90,74,57,66,60,53,100,66,32,29.96,29.90,29.85,10,9,2,25,6,33,0.44,2,Rain-Thunderstorm,150
2013-9-5,84,71,57,60,57,54,93,70,46,29.95,29.87,29.76,10,9,1,41,8,49,0.53,2,Rain-Thunderstorm,259
2013-9-6,74,64,54,54,50,47,86,67,47,30.10,30.04,29.96,10,10,10,23,9,28,T,5,Rain,225
2013-9-7,79,64,49,54,51,48,96,68,39,30.09,30.03,29.96,10,10,10,16,5,19,0.00,0,,75
2013-9-8,80,66,52,53,50,47,100,66,32,30.06,30.01,29.96,10,10,10,14,6,16,0.00,1,,135
2013-9-9,88,73,57,50,48,42,72,47,21,29.98,29.92,29.86,10,10,10,13,7,16,0.00,0,,125
2013-9-10,91,73,54,53,50,47,77,50,23,29.96,29.90,29.86,10,10,10,15,7,19,0.00,0,,91
2013-9-11,92,75,57,54,51,48,77,50,23,29.99,29.93,29.89,10,10,10,14,7,18,0.00,0,,106
2013-9-12,90,75,60,54,51,49,67,47,27,29.94,29.87,29.81,10,10,10,14,6,15,0.00,0,,165
2013-9-13,92,77,61,55,50,47,65,44,23,29.83,29.77,29.69,10,10,10,14,8,18,0.00,0,,173
2013-9-14,94,76,58,54,52,50,72,49,26,29.79,29.73,29.68,10,10,10,18,7,22,0.00,0,,91
2013-9-15,99,81,62,64,56,48,78,48,18,29.75,29.63,29.49,10,9,2,54,12,70,0.06,2,Rain-Thunderstorm,154
2013-9-16,77,66,54,51,48,45,77,55,33,29.89,29.84,29.76,10,10,10,24,12,31,T,0,,248
2013-9-17,63,57,50,55,49,42,93,73,52,29.85,29.78,29.73,10,9,2,30,11,38,0.22,6,Rain-Thunderstorm,183
2013-9-18,71,60,49,44,41,35,71,51,30,30.05,29.97,29.85,10,10,10,31,15,38,0.00,3,,255
2013-9-19,81,62,42,40,37,32,83,51,18,30.04,29.94,29.78,10,10,10,24,8,28,0.00,0,,96
2013-9-20,84,66,47,45,39,33,66,43,20,29.77,29.64,29.52,10,10,10,26,10,33,0.00,0,,293
2013-9-21,69,61,53,49,47,45,83,64,45,29.69,29.65,29.62,10,10,10,24,6,29,T,2,Rain,279
2013-9-22,67,59,51,52,47,41,83,62,40,29.79,29.72,29.65,10,10,6,22,9,29,0.20,6,Rain,227
2013-9-23,68,58,47,48,44,38,86,60,34,29.94,29.91,29.82,10,10,10,20,6,25,0.01,6,,222
2013-9-24,57,51,45,51,47,40,89,76,62,29.91,29.85,29.79,10,10,4,17,7,21,0.11,7,Rain,220
2013-9-25,63,54,44,43,41,37,92,67,42,29.85,29.81,29.78,10,10,10,23,11,28,T,7,Rain,268
2013-9-26,59,53,46,46,43,40,93,72,51,30.07,29.99,29.87,10,10,10,20,10,24,0.06,6,Rain,267
2013-9-27,61,54,46,49,42,36,89,66,42,30.08,30.02,29.92,10,10,5,20,9,25,0.18,6,Rain,183
2013-9-28,70,60,49,51,47,42,89,63,37,29.91,29.69,29.46,10,10,7,44,16,54,0.06,7,Rain,198
2013-9-29,63,56,49,48,43,40,93,70,46,29.69,29.61,29.35,10,10,9,38,16,50,0.09,5,Rain,208
2013-9-30,65,56,46,52,40,35,86,60,34,29.96,29.77,29.51,10,9,2,37,17,51,0.14,5,Rain,247